• Join FlightAware (Why Join?)
  • Login
  • US Flag 
09:26AM EDT


 

Airport Tracker/Info


-or-


 

Live Flight TrackerFlight Track Log ✈ UAL3740 ✈ 19-Apr-2013 ✈ KPVD - KIAD

Flight Track Log - Related Links

Times and Time Zones

All times are in EDT time to prevent confusion due to time zone crossing. See the UAL3740 flight status page for this flight to view local times or setup timezone preferences in your user account.

Time Position Orientation Groundspeed Altitude Reporting Facility
EDT Latitude Longitude Course Direction KTS MPH feet Rate Location/Type
10:24AM 41.7008 -71.5642 257° West 196 226 4,000  Level Boston Center
10:25AM 41.7325 -71.6250 305° West 280 322 5,800 2,700 Climbing Boston Center
10:26AM 41.7978 -71.6911 323° Northwest 285 328 8,400 2,760 Climbing Boston Center
10:27AM 41.8647 -71.7544 325° Northwest 285 328 11,300 2,640 Climbing Boston Center
10:28AM 41.9339 -71.8233 323° Northwest 296 341 13,800 2,400 Climbing Boston Center
10:29AM 41.9719 -71.9150 299° West 293 337 16,200 2,100 Climbing Boston Center
10:30AM 41.9933 -72.0156 286° West 291 335 18,000 1,380 Climbing Boston Center
10:31AM 42.0269 -72.1439 289° West 328 377 19,100 1,380 Climbing Boston Center
10:32AM 42.0564 -72.2694 288° West 340 391 20,900 1,560 Climbing Boston Center
10:33AM 42.0606 -72.3981 273° West 354 407 22,600 1,560 Climbing Boston Center
10:34AM 42.0378 -72.5575 259° West 349 402 24,300 1,380 Climbing Boston Center
10:35AM 42.0186 -72.6917 259° West 354 407 25,400 1,020 Climbing Boston Center
10:36AM 41.9725 -72.8228 245° Southwest 376 433 26,400 1,140 Climbing Boston Center
10:37AM 41.9075 -72.9367 233° Southwest 381 438 27,800 780 Climbing Boston Center
10:38AM 41.8403 -73.0475 231° Southwest 406 467 28,000 60 Climbing Boston Center
10:39AM 41.7667 -73.1722 232° Southwest 424 488 28,000  Level Boston Center
10:40AM 41.6906 -73.2992 231° Southwest 434 499 28,000  Level Boston Center
10:41AM 41.6314 -73.4011 232° Southwest 439 505 28,000  Level Boston Center
10:43AM 41.4392 -73.7239 232° Southwest 423 487 28,000  Level New York Center
10:44AM 41.3653 -73.8478 232° Southwest 428 493 28,000  Level New York Center
10:45AM 41.2911 -73.9686 231° Southwest 428 493 28,000  Level New York Center
10:46AM 41.2192 -74.0867 231° Southwest 423 487 28,000  Level New York Center
10:47AM 41.1644 -74.1775 231° Southwest 423 487 28,000  Level New York Center
10:48AM 41.0839 -74.3000 229° Southwest 413 475 28,000  Level New York Center
10:49AM 41.0136 -74.4147 231° Southwest 413 475 28,000  Level New York Center
10:50AM 40.9436 -74.5264 230° Southwest 413 475 28,000 -60 Level New York Center
10:51AM 40.8814 -74.6436 235° Southwest 408 470 27,900  Descending New York Center
10:52AM 40.8342 -74.7478 239° Southwest 374 430 28,000  Climbing New York Center
10:53AM 40.7867 -74.8575 240° Southwest 351 404 28,000 -600 Level New York Center
10:54AM 40.7392 -74.9669 240° Southwest 351 404 26,800 -1,380 Descending New York Center
10:55AM 40.6917 -75.0681 238° Southwest 340 391 25,300 -1,620 Descending New York Center
10:56AM 40.6442 -75.1744 240° Southwest 335 386 23,700 -1,740 Descending New York Center
10:57AM 40.5942 -75.2833 239° Southwest 330 380 21,800 -1,740 Descending New York Center
10:58AM 40.5508 -75.3789 239° Southwest 324 373 20,200 -900 Descending New York Center
10:59AM 40.5075 -75.4714 238° Southwest 313 360 20,000 -120 Descending New York Center
11:00AM 40.4642 -75.5639 238° Southwest 308 354 20,000  Level New York Center
11:01AM 40.4142 -75.6694 238° Southwest 323 372 20,000 -60 Level New York Center
11:02AM 40.3614 -75.7856 239° Southwest 351 404 19,900  Descending New York Center
11:03AM 40.3086 -75.8961 238° Southwest 357 411 20,000  Climbing New York Center
11:04AM 40.2583 -75.9986 237° Southwest 370 426 20,000 -360 Level New York Center
11:05AM 40.2075 -76.1061 238° Southwest 364 419 19,400 -1,320 Descending New York Center
11:06AM 40.1522 -76.2242 239° Southwest 359 413 17,500 -1,620 Descending New York Center
11:08AM 40.0667 -76.4167 240° Southwest 317 365 14,900 -960 Descending Potomac TRACON
11:09AM 40.0167 -76.5000 232° Southwest 318 366 14,900  Level Potomac TRACON
11:10AM 39.9833 -76.6000 247° West 317 365 14,900  Level Potomac TRACON
11:11AM 39.9333 -76.7167 241° Southwest 330 380 14,900  Level Potomac TRACON
11:12AM 39.8833 -76.8167 237° Southwest 312 359 14,900 -420 Level Potomac TRACON
11:13AM 39.8500 -76.8833 237° Southwest 298 343 14,100 -1,320 Descending Potomac TRACON
11:14AM 39.8000 -76.9833 237° Southwest 311 358 12,400 -1,620 Descending Potomac TRACON
11:15AM 39.7500 -77.0833 237° Southwest 312 359 11,000 -1,260 Descending Potomac TRACON
11:16AM 39.7000 -77.1667 232° Southwest 311 358 9,900 -600 Descending Potomac TRACON
11:17AM 39.6667 -77.2500 243° Southwest 275 316 9,900  Level Potomac TRACON
11:18AM 39.6333 -77.3333 243° Southwest 268 308 9,900  Level Potomac TRACON
11:19AM 39.5667 -77.3833 210° Southwest 261 300 9,900 -780 Level Potomac TRACON
11:20AM 39.5167 -77.4333 218° Southwest 255 293 8,400 -1,380 Descending Potomac TRACON
11:21AM 39.4500 -77.4500 191° South 229 264 7,300 -1,260 Descending Potomac TRACON
11:22AM 39.3833 -77.4500 180° South 232 267 6,100 -720 Descending Potomac TRACON
11:23AM 39.3333 -77.4500 180° South 211 243 5,900 -660 Descending Potomac TRACON
11:24AM 39.2833 -77.4500 180° South 227 261 4,900 -540 Descending Potomac TRACON
11:25AM 39.2167 -77.4500 180° South 180 207 4,900 -240 Level Potomac TRACON
11:26AM 39.1833 -77.4500 180° South 151 174 4,500 -720 Descending Potomac TRACON
11:27AM 39.1333 -77.4500 180° South 150 173 3,500 -900 Descending Potomac TRACON
11:28AM 39.1000 -77.4500 180° South 151 174 2,800 -840 Descending Potomac TRACON
11:29AM 39.0500 -77.4667 195° South 165 190 1,900 -900 Descending Potomac TRACON
11:29AM 39.0167 -77.4667 180° South 138 159 1,200 -780 Descending Potomac TRACON
11:31AM 38.9474 -77.4599 142° Southeast  Level Estimated
11:38AM 38.9474 -77.4599 349° North  Level Estimated
11:39AM 38.9474 -77.4599 349° North  Level Estimated